星链-30201 (STARLINK-30201 )

导读

STARLINK-30201是美国SpaceX星链(Starlink)项目的低轨通信卫星,于2023年7月10日发射入轨。作为星链第二代星座的组成部分,它运行在约550公里近地轨道,配备激光星间链路与相控阵通信技术,可为全球提供低延迟高速宽带服务,支持偏远地区接入、应急通信等场景,具备自主变轨避撞能力,退役后会在大气层完全烧毁,减少空间碎片影响。

Basic Information
目录编号:
57301
目录名称:
STARLINK-30201
国际标识:
2023-096M
轨道中心:
EARTH
卫星名称:
星链-30201
卫星全名:
星链-30201 (STARLINK-30201 )
卫星状态:
在轨 (已飞行1159 天)
发射日期:
2023-07-10 UTC
国别 :
美国 (US)
星等 :
--
This satellite is enrolled in the Space Conjunction Data Service (SCDS) and the current flight risk assessment level is: High Risk
Orbit Information
数据来源 国际轨道数据
星历时间: 2026-09-11T09:11:41+0800
16小时前
查看轨道信息
半长轴: 6861.431km
偏心率: 0.0002221
轨道倾角: 43.004°
近地点辐角 164.309°
升交点赤经 256.539°
平近点角 195.784°
近地点: 481.77km
远地点: 484.818km
周期: 94.272分钟
每日圈数: 15.274984
Detailed Information
固有亮度:
5
最大亮度:
0.3
卫星平台:
Starlink v2.0 mini
覆盖范围:
全球
运营商:
太空探索技术公司
运营商所在国:
美国
制造商(研发单位):
太空探索技术公司
制造商所在国:
美国
使用方式:
暂无
Satellite Introduction
星链(Starlink)计划是由太空探索技术公司(SpaceX)提出的一个巨型低轨卫星互联网星座项目,计划在2019年至2024年间在太空搭建由约1.2万颗卫星组成的“星链”网络,其中1584颗将部署在地球上空550千米处的近地轨道,并从2020年开始工作。该卫星仍在工作。
2D Orbit Map
3D Orbit Map
Orbit Altitude Analysis Chart
Orbit Inclination Analysis Chart
Orbit Comprehensive Analysis Chart
View Comprehensive Chart
Conjunction Data List
Event ID Objects TCA Miss Dist (km) Collision Risk Probability Collision Risk Index (CRI) Action
CDM_260913-134205-730105-807821
2026-09-13T
13:42:51+0000
0.604 km
远距离
9.994711E-5 中风险 0.75
CDM_260912-181805-730106-712521
2026-09-12T
18:18:02+0000
0.552 km
远距离
8.044234E-5 中风险 0.73
CDM_260913-195805-690805-730121
2026-09-13T
19:58:19+0000
0.899 km
远距离
2.982938E-5 中风险 0.64
CDM_260912-230305-653805-730121
2026-09-12T
23:03:28+0000
0.678 km
远距离
2.781885E-5 中风险 0.64
CDM_260914-021805-730105-764721
2026-09-14T
02:18:32+0000
1.060 km
极远距离
1.618843E-5 中风险 0.59
CDM_260913-060705-653805-730121
2026-09-13T
06:07:11+0000
0.822 km
远距离
1.478923E-5 中风险 0.58
CDM_260912-194105-730105-867021
2026-09-12T
19:41:13+0000
1.111 km
极远距离
1.402362E-5 中风险 0.58
CDM_260913-165205-730105-867021
2026-09-13T
16:52:23+0000
1.167 km
极远距离
1.179765E-5 中风险 0.56
CDM_260913-182605-730105-867021
2026-09-13T
18:26:32+0000
1.237 km
极远距离
9.656153E-6 低风险 0.55
CDM_260913-012105-730106-712521
2026-09-13T
01:21:44+0000
1.115 km
极远距离
8.4147E-6 低风险 0.54
Miss Distance Evolution Trend with All Objects
Collision Probability Evolution Trend with All Objects